Home   Weather   Istres   Past weeks

Flag for France Past Weather in Istres, Provence-Alpes-Côte d'Azur, France — Yesterday and Last 2 Weeks

63 °F

Mostly cloudy.

Feels Like: 63 °F
Forecast: 63 / 75 °F
Wind: 14 mph from East

Location: Istres Airport

Current Time: Oct 23, 2016 at 8:06:05 PM

Latest Report: Oct 23, 2016 at 7:30 PM

Visibility: N/A

Pressure: 29.86 "Hg

Humidity: 77%

Dew Point: 55 °F

Location of IstresLocation

Past Weather in Istres — Graph


Istres Temperature Yesterday

Maximum temperature yesterday: 64 °F (at 12:30 PM)
Minimum temperature yesterday: 43 °F (at 7:30 AM)
Average temperature yesterday: 53 °F

High & Low Weather Summary for the Past Weeks

High72 °F (Oct 15, 3:00 PM)100% (Oct 15, 6:30 AM)30.21 "Hg (Oct 15, 6:30 AM)
Low43 °F (Oct 22, 7:30 AM)36% (Oct 11, 4:30 PM)29.47 "Hg (Oct 14, 7:00 AM)
Average58 °F68%29.95 "Hg
* Reported Oct 8 7:00 PM — Oct 23 7:00 PM, Istres, Weather by CustomWeather, © 2016

Note: Actual official high and low records may vary slightly from our data, if they occured in-between our weather recording intervals... More about our weather records


Istres Weather History for the Previous 24 Hours

Scroll right to see more
Time TempWeatherWind HumidityBarometerVisibility
7:00 PM
Sun, Oct 23
63 °FPassing clouds.14 mph77%29.86 "HgN/A
6:30 PM63 °FPartly sunny.13 mph77%29.83 "HgN/A
6:00 PM64 °FMostly cloudy.12 mph78%29.83 "HgN/A
5:30 PM64 °FMostly cloudy.15 mph73%29.83 "HgN/A
5:00 PM64 °FBroken clouds.12 mph78%29.83 "HgN/A
4:30 PM66 °FSunny.12 mph73%29.83 "Hg10 mi
4:00 PM66 °FScattered clouds.15 mph73%29.83 "HgN/A
3:30 PM66 °FPartly sunny.15 mph73%29.83 "HgN/A
3:00 PM66 °FScattered clouds.16 mph73%29.83 "HgN/A
2:30 PM64 °FPartly sunny.16 mph78%29.83 "HgN/A
2:00 PM64 °FMostly cloudy.15 mph73%29.83 "HgN/A
1:30 PM64 °FMostly cloudy.14 mph73%29.83 "HgN/A
1:00 PM63 °FMostly cloudy.16 mph77%29.83 "HgN/A
12:30 PM63 °FPartly sunny.16 mph77%29.83 "HgN/A
12:00 PM61 °FPartly sunny.16 mph83%29.83 "HgN/A
11:30 AM61 °FMostly cloudy.16 mph83%29.83 "HgN/A
11:00 AM61 °FMostly cloudy.15 mph77%29.83 "HgN/A
10:30 AM59 °FMostly cloudy.14 mph82%29.83 "HgN/A
10:00 AM57 °FMostly cloudy.15 mph88%29.80 "HgN/A
9:30 AM57 °FMostly cloudy.14 mph88%29.80 "HgN/A
9:00 AM57 °FMostly cloudy.15 mph88%29.80 "HgN/A
8:30 AM57 °FOvercast.15 mph88%29.80 "HgN/A
8:00 AM57 °FMostly cloudy.14 mph88%29.80 "HgN/A
7:30 AM57 °FMostly cloudy.16 mph88%29.80 "HgN/A
7:00 AM57 °FMostly cloudy.15 mph88%29.80 "HgN/A
6:30 AM57 °FDrizzle. Mostly cloudy.14 mph88%29.80 "HgN/A
6:00 AM57 °FMostly cloudy.15 mph88%29.80 "HgN/A
5:30 AM57 °FLight rain. Overcast.17 mph88%29.80 "HgN/A
5:00 AM57 °FOvercast.17 mph88%29.80 "HgN/A
4:30 AM57 °FOvercast.16 mph82%29.80 "HgN/A
4:00 AM57 °FMostly cloudy.16 mph82%29.80 "HgN/A
3:30 AM57 °FMostly cloudy.16 mph77%29.83 "HgN/A
3:00 AM57 °FOvercast.16 mph77%29.83 "HgN/A
2:30 AM57 °FOvercast.17 mph72%29.83 "HgN/A
2:00 AM57 °FOvercast.15 mph77%29.86 "HgN/A
1:30 AM57 °FOvercast.16 mph77%29.86 "HgN/A
1:00 AM55 °FOvercast.16 mph82%29.86 "HgN/A
12:30 AM55 °FOvercast.16 mph82%29.86 "HgN/A
12:00 AM54 °FOvercast.14 mph88%29.89 "HgN/A
11:30 PM
Sat, Oct 22
54 °FOvercast.14 mph88%29.89 "HgN/A
11:00 PM54 °FLight rain. Mostly cloudy.13 mph88%29.89 "Hg5 mi
10:30 PM55 °FOvercast.13 mph82%29.89 "HgN/A
10:00 PM54 °FOvercast.13 mph88%29.89 "HgN/A
9:30 PM54 °FLight rain. Mostly cloudy.13 mph88%29.89 "HgN/A
9:00 PM55 °FRain. Fog.12 mph88%29.89 "Hg3 mi
8:30 PM55 °FOvercast.13 mph88%29.89 "HgN/A
8:00 PM55 °FDrizzle. Overcast.10 mph94%29.89 "Hg6 mi
Weather by CustomWeather, © 2016

See weather overviewHow to use our weather pages